This is the latest recevied weather packets stored in our database for station/object KN4AN. If no packets are shown the sender has not sent any weather packets the latest 10 day(s).
| Time | Temp. | Humidity | Pressure | Rain* | Wind** | Luminosity | Snow |
|---|---|---|---|---|---|---|---|
| 1787921837 | 22.22° C | 83% | 1017.6 hPa | 0 mm | - | 240 W/m² | - |
| 1787921533 | 22.22° C | 84% | 1017.5 hPa | 0 mm | - | 212 W/m² | - |
| 1787921232 | 21.67° C | 84% | 1017.5 hPa | 0 mm | - | 183 W/m² | - |
| 1787920928 | 21.67° C | 85% | 1017.4 hPa | 0 mm | - | 154 W/m² | - |
| 1787920623 | 21.11° C | 86% | 1017.5 hPa | 0 mm | - | 134 W/m² | - |
| 1787920317 | 21.11° C | 87% | 1017.3 hPa | 0 mm | - | 122 W/m² | - |
| 1787920015 | 21.11° C | 87% | 1017.6 hPa | 0 mm | - | 111 W/m² | - |
| 1787919709 | 20.56° C | 89% | 1017.7 hPa | 0 mm | - | 97 W/m² | - |
| 1787919409 | 20.56° C | 91% | 1017.5 hPa | 0 mm | - | 86 W/m² | - |
| 1787919105 | 20.56° C | 95% | 1017.5 hPa | 0 mm | - | 79 W/m² | - |
| 1787918799 | 20° C | 98% | 1017.4 hPa | 0 mm | - | 55 W/m² | - |
| 1787918499 | 19.44° C | 99% | 1017.5 hPa | 0 mm | - | 46 W/m² | - |
| 1787918198 | 18.89° C | 98% | 1017.4 hPa | 0 mm | - | 43 W/m² | - |
| 1787917892 | 18.33° C | 98% | 1017.4 hPa | 0 mm | - | 40 W/m² | - |
| 1787917588 | 18.33° C | 98% | 1017.4 hPa | 0 mm | - | 37 W/m² | - |
| 1787917285 | 17.78° C | 98% | 1017.2 hPa | 0 mm | - | 34 W/m² | - |
| 1787916984 | 17.78° C | 98% | 1017.2 hPa | 0 mm | - | 31 W/m² | - |
| 1787916678 | 17.78° C | 98% | 1017.1 hPa | 0 mm | - | 28 W/m² | - |
| 1787916373 | 17.78° C | 98% | 1017 hPa | 0 mm | - | 25 W/m² | - |
| 1787916068 | 17.78° C | 98% | 1017.1 hPa | 0 mm | - | 23 W/m² | - |
| 1787915768 | 17.22° C | 98% | 1016.8 hPa | 0 mm | - | 20 W/m² | - |
| 1787915463 | 17.22° C | 98% | 1016.7 hPa | 0 mm | - | 17 W/m² | - |
| 1787915163 | 17.78° C | 98% | 1016.7 hPa | 0 mm | - | 13 W/m² | - |
| 1787914858 | 17.22° C | 98% | 1016.6 hPa | 0 mm | - | 10 W/m² | - |
| 1787914555 | 17.22° C | 98% | 1016.6 hPa | 0 mm | - | 6 W/m² | - |
* Rain latest hour (hover to see other rain measurements)
** Current wind speed in m/s (hover to see current wind gust speed)